This is the latest recevied weather packets stored in our database for station/object n3uvr. If no packets are shown the sender has not sent any weather packets the latest 10 day(s).
| Time | Temp. | Humidity | Pressure | Rain* | Wind** | Luminosity | Snow |
|---|---|---|---|---|---|---|---|
| 1788377528 | 22.22° C | 87% | 1017.6 hPa | 0 mm | - | 26 W/m² | - |
| 1788376912 | 22.22° C | 87% | 1017.7 hPa | 0 mm | - | 23 W/m² | - |
| 1788376312 | 22.22° C | 87% | 1017.8 hPa | 0 mm | - | 25 W/m² | - |
| 1788373956 | 22.22° C | 87% | 1018.8 hPa | 0 mm | - | 25 W/m² | - |
| 1788370935 | 21.67° C | 87% | 1018.7 hPa | 0 mm | - | 19 W/m² | - |
| 1788366094 | 21.67° C | 87% | 1019 hPa | 0 mm | - | 14 W/m² | - |
| 1788365491 | 21.67° C | 87% | 1018.8 hPa | 0 mm | - | 14 W/m² | - |
| 1788362496 | 21.67° C | 87% | 1018.7 hPa | 0 mm | - | 21 W/m² | - |
| 1788361879 | 21.67° C | 87% | 1018.7 hPa | 0 mm | - | 23 W/m² | - |
| 1788358279 | 21.67° C | 87% | 1018.9 hPa | 0 mm | - | 19 W/m² | - |
| 1788355874 | 21.11° C | 86% | 1018.4 hPa | 0 mm | - | 21 W/m² | - |
| 1788355272 | 21.11° C | 86% | 1018.1 hPa | 0 mm | - | 19 W/m² | - |
| 1788354699 | 21.11° C | 86% | 1018.2 hPa | 0 mm | - | 16 W/m² | - |
| 1788354114 | 21.11° C | 86% | 1017.9 hPa | 0 mm | - | 19 W/m² | - |
| 1788353475 | 21.11° C | 85% | 1017.9 hPa | 0 mm | - | 12 W/m² | - |
| 1788349862 | 21.11° C | 84% | 1017.8 hPa | 0 mm | - | 0 W/m² | - |
| 1788348694 | 21.11° C | 84% | 1017.7 hPa | 0 mm | - | 0 W/m² | - |
| 1788348075 | 21.11° C | 84% | 1017.6 hPa | 0 mm | - | 0 W/m² | - |
| 1788347486 | 21.11° C | 84% | 1017.7 hPa | 0 mm | - | 0 W/m² | - |
| 1788346276 | 21.67° C | 83% | 1017.6 hPa | 0 mm | - | 0 W/m² | - |
| 1788345664 | 21.67° C | 82% | 1017.6 hPa | 0 mm | - | 0 W/m² | - |
| 1788345067 | 22.22° C | 82% | 1017.5 hPa | 0 mm | - | 0 W/m² | - |
| 1788344467 | 22.22° C | 81% | 1017.4 hPa | 0 mm | - | 0 W/m² | - |
| 1788343895 | 22.22° C | 81% | 1017.3 hPa | 0 mm | - | 0 W/m² | - |
| 1788342707 | 22.22° C | 81% | 1017.4 hPa | 0 mm | - | 0 W/m² | - |
* Rain latest hour (hover to see other rain measurements)
** Current wind speed in m/s (hover to see current wind gust speed)